Regional Weather Roundup
Issued by NWS Midland/Odessa, TX

Skip options and go directly to product.
Home | Oldest Version | Next Version | Current Version | All | Text Only | Save Text | Print | Product List | Glossary On

Skip product version selection by date and time.   
921
ASUS44 KMAF 021410
RWRMAF
MIDLAND AREA WEATHER ROUNDUP
NATIONAL WEATHER SERVICE MIDLAND TX
900 AM CDT THU JUL 02 2015

...IN SOUTHWEST TEXAS AND SOUTHEAST NEW MEXICO...

CITY           SKY/WX    TMP DP  RH WIND       PRES   REMARKS
ALPINE         NOT AVBL
ANDREWS        NOT AVBL
ARTESIA        CLOUDY    72  66  83 SE10      30.06S
BIG SPRING     NOT AVBL
CARLSBAD       PTSUNNY   72  65  78 E7        30.03R
DRYDEN           N/A     72  65  78 SE6       30.00R
FORT STOCKTON  SUNNY     74  65  73 SE12      30.01R
GUAD PASS      MOSUNNY   68  59  73 E15       30.14S
HOBBS          CLOUDY    68  68 100 E8        30.09R
MARFA          MOSUNNY  N/A N/A N/A CALM      30.14R
MIDLAND AIRPK  NOT AVBL
MIDLAND INTL   CLOUDY    71  64  78 S9        30.04R
ODESSA         CLOUDY    71  63  75 S9        30.05R
PECOS          NOT AVBL
PRESIDIO       NOT AVBL
SEMINOLE       NOT AVBL
SNYDER         NOT AVBL
WINK           MOSUNNY   73  65  75 E13       30.00R
$$
...OTHER STATIONS IN TEXAS...

CITY           SKY/WX    TMP DP  RH WIND       PRES   REMARKS
ABILENE        MOSUNNY   75  66  73 S14       30.04R
AMARILLO       CLOUDY    71  65  81 N6        30.04R
AUSTIN         PTSUNNY   73  71  93 S10       30.04R
BROWNSVILLE    PTSUNNY   84  78  82 SE10      30.00R
CORPUS CHRISTI MOSUNNY   82  77  84 SE9       30.01R
DALLAS FTW     PTSUNNY   80  66  62 SW16      29.99R
DEL RIO        SUNNY     74  64  71 SE10      29.99R
EL PASO        MOSUNNY   80  51  36 S5        30.01R
HOUSTON INT    MOSUNNY   78  74  87 SE5       30.04R
LUBBOCK        PTSUNNY   73  65  75 SW12      30.03R
SAN ANGELO     MOSUNNY   73  65  75 S14       30.03R
SAN ANTONIO    CLOUDY    75  68  78 SE9       30.04R
WACO           SUNNY     76  69  79 S14       30.04R
WICHITA FALLS  NOT AVBL
$$
...OTHER LOCATIONS IN NEW MEXICO...

CITY           SKY/WX    TMP DP  RH WIND       PRES   REMARKS
ALAMAGORDO     PTSUNNY   73  50  43 N6        30.04S
ALBUQUERQUE    PTSUNNY   74  55  51 CALM      30.16S
CANNON AFB     MOSUNNY   71  61  71 N3        30.08R
CLOVIS         CLOUDY    72  61  68 N8          N/A
HOLLOMAN AFB   MOSUNNY   74  48  40 N5        30.02S
ROSWELL        PTSUNNY   75  62  64 SE7       30.06R
RUIDOSO        PTSUNNY   68  50  52 W3        30.28R
SANTA FE       PTSUNNY   64  55  72 N13       30.24R
TRUTH OR CONSE MOSUNNY   79  50  36 N8        30.09R
TUCUMCARI        N/A     72  63  73 S3        30.07R
$$

USA.gov is the U.S. government's official web portal to all federal, state and local government web resources and services.